User: anonymous   Login
Location: Dackenheim
(49.5215°N, 8.1854°E)
Time: 21:20:55
(UTC+00:00)
Language:

VELOX 1 - Orbit

View from above orbital plane
View from above orbital plane
View from above satellite
View from above satellite

Ground track
Ground track

The orbit is defined by the following mean orbital elements,

1 40057U          26075.24294544 +.00000000 +00000-0 +46869-3 0 00009
2 40057  98.2617 335.0066 0006732 213.9122 146.1669 14.96948828    04
Epoch (UTC): 16 March 2026 05:49:50
Eccentricity: 0.0006732
inclination: 98.2617°
perigee height: 572 km
apogee height: 581 km
right ascension of ascending node: 335.0066°
argument of perigee: 213.9122°
revolutions per day: 14.96948828
mean anomaly at epoch: 146.1669°

The dashed part of the orbit path shows where the satellite is in the earth's shadow,  

DLR